Time,TemperatureF,DewpointF,PressureIn,WindDirection,WindDirectionDegrees,WindSpeedMPH,WindSpeedGustMPH,Humidity,HourlyPrecipIn,Conditions,Clouds,dailyrainin,SoftwareType,DateUTC
2013-03-04 00:10:00,60.0,-99.9,-100.00,SW,217,4.0,5.0,-999,-99.99,,,-99.99,,2013-03-04 06:10:00,
2013-03-04 00:52:00,60.0,-99.9,-100.00,SW,217,4.0,5.0,-999,-99.99,,,-99.99,,2013-03-04 06:52:00,
2013-03-04 01:02:00,60.0,-99.9,-100.00,SW,217,4.0,5.0,-999,-99.99,,,-99.99,,2013-03-04 07:02:00,
2013-03-04 03:32:00,54.0,-99.9,-100.00,WSW,247,1.0,3.0,-999,-99.99,,,-99.99,,2013-03-04 09:32:00,
2013-03-04 03:42:00,54.0,-99.9,-100.00,WSW,247,1.0,3.0,-999,-99.99,,,-99.99,,2013-03-04 09:42:00,
2013-03-04 07:22:00,54.0,-99.9,-100.00,SW,219,2.0,4.0,-999,-99.99,,,-99.99,,2013-03-04 13:22:00,
2013-03-04 07:32:00,54.0,-99.9,-100.00,SW,219,2.0,4.0,-999,-99.99,,,-99.99,,2013-03-04 13:32:00,
2013-03-04 07:42:00,54.0,-99.9,-100.00,SW,219,2.0,4.0,-999,-99.99,,,-99.99,,2013-03-04 13:42:00,
2013-03-04 08:22:00,60.0,-99.9,-100.00,SW,236,5.0,5.0,-999,-99.99,,,-99.99,,2013-03-04 14:22:00,
2013-03-04 08:32:00,60.0,-99.9,-100.00,SW,236,5.0,5.0,-999,-99.99,,,-99.99,,2013-03-04 14:32:00,
2013-03-04 10:22:00,71.0,-99.9,-100.00,SW,217,2.0,4.0,-999,-99.99,,,-99.99,,2013-03-04 16:22:00,
2013-03-04 10:32:00,71.0,-99.9,-100.00,SW,217,2.0,4.0,-999,-99.99,,,-99.99,,2013-03-04 16:32:00,
2013-03-04 11:32:00,81.0,-99.9,-100.00,WSW,247,5.0,10.0,-999,-99.99,,,-99.99,,2013-03-04 17:32:00,
2013-03-04 11:42:00,81.0,-99.9,-100.00,WSW,247,5.0,10.0,-999,-99.99,,,-99.99,,2013-03-04 17:42:00,
2013-03-04 11:52:00,81.0,-99.9,-100.00,WSW,247,5.0,10.0,-999,-99.99,,,-99.99,,2013-03-04 17:52:00,
2013-03-04 13:30:00,87.0,-99.9,-100.00,West,259,10.0,10.0,-999,-99.99,,,-99.99,,2013-03-04 19:30:00,
2013-03-04 14:02:00,87.0,-99.9,-100.00,West,277,9.0,11.0,-999,-99.99,,,-99.99,,2013-03-04 20:02:00,
2013-03-04 14:12:00,87.0,-99.9,-100.00,West,277,9.0,11.0,-999,-99.99,,,-99.99,,2013-03-04 20:12:00,
2013-03-04 14:22:00,87.0,-99.9,-100.00,West,259,10.0,10.0,-999,-99.99,,,-99.99,,2013-03-04 20:22:00,
2013-03-04 16:02:00,83.0,-99.9,-100.00,WSW,241,3.0,15.0,-999,-99.99,,,-99.99,,2013-03-04 22:02:00,
2013-03-04 16:10:00,84.0,-99.9,-100.00,WSW,254,10.0,15.0,-999,-99.99,,,-99.99,,2013-03-04 22:10:00,
2013-03-04 16:12:00,83.0,-99.9,-100.00,WSW,241,3.0,15.0,-999,-99.99,,,-99.99,,2013-03-04 22:12:00,
2013-03-04 16:52:00,84.0,-99.9,-100.00,WSW,254,10.0,15.0,-999,-99.99,,,-99.99,,2013-03-04 22:52:00,
2013-03-04 17:02:00,84.0,-99.9,-100.00,WSW,254,10.0,15.0,-999,-99.99,,,-99.99,,2013-03-04 23:02:00,
2013-03-04 18:33:00,83.0,-99.9,-100.00,SW,232,2.0,10.0,-999,-99.99,,,-99.99,,2013-03-05 00:33:00,
2013-03-04 18:42:00,83.0,-99.9,-100.00,SW,232,2.0,10.0,-999,-99.99,,,-99.99,,2013-03-05 00:42:00,
2013-03-04 18:52:00,83.0,-99.9,-100.00,SW,232,2.0,10.0,-999,-99.99,,,-99.99,,2013-03-05 00:52:00,
2013-03-04 22:52:00,73.0,-99.9,-100.00,NW,308,6.0,7.0,-999,-99.99,,,-99.99,,2013-03-05 04:52:00,
2013-03-04 23:02:00,72.0,-99.9,-100.00,WNW,303,5.0,8.0,-999,-99.99,,,-99.99,,2013-03-05 05:02:00,
2013-03-04 23:10:00,68.0,-99.9,-100.00,NW,311,4.0,6.0,-999,-99.99,,,-99.99,,2013-03-05 05:10:00,
2013-03-04 23:12:00,72.0,-99.9,-100.00,WNW,303,5.0,8.0,-999,-99.99,,,-99.99,,2013-03-05 05:12:00,
2013-03-04 23:23:00,72.0,-99.9,-100.00,WNW,303,5.0,8.0,-999,-99.99,,,-99.99,,2013-03-05 05:23:00,
2013-03-04 23:52:00,68.0,-99.9,-100.00,NW,311,4.0,6.0,-999,-99.99,,,-99.99,,2013-03-05 05:52:00,